This demonstration page uses our WeatherBlox Daily Observations layout. Learn more.

Left ArrowRight Arrow

39.01783, -85.05884

Hourly Observations for October 16, 2020

Temp ( °F °C ) Dew Point ( °F °C ) Humidity (%) Winds ( mph kmh ) Pressure ( in mb ) Visibility ( mi km ) Precip ( " mm )
12:52 am 00:52 Cloudy 47 8.3 43 6.1 86 86 W 8 13 30.14 1021 10 16.0934 0 0
1:52 am 01:52 Cloudy 46 7.8 42 5.6 86 86 W 8 13 30.16 1021 10 16.0934 0 0
2:52 am 02:52 Cloudy 46 7.8 41 5 83 83 W 8 13 30.18 1022 10 16.0934 0 0
3:52 am 03:52 Cloudy 43 6.1 39 3.9 86 86 WNW 7 11 30.19 1022 10 16.0934 0 0
4:52 am 04:52 Cloudy 42 5.6 34 1.1 73 73 W 5 7 30.2 1023 10 16.0934 0 0
5:52 am 05:52 Mostly Clear 40 4.4 32 0 73 73 WNW 8 13 30.22 1023 10 16.0934 0 0
6:52 am 06:52 Mostly Clear 41 5 31 -0.6 67 67 W 8 13 30.23 1024 10 16.0934 0 0
7:52 am 07:52 Mostly Sunny 37 2.8 31 -0.6 79 79 WSW 5 7 30.24 1024 10 16.0934 0 0
8:52 am 08:52 Mostly Sunny 40 4.4 33 0.6 77 77 WSW 3 6 30.26 1025 10 16.0934 0 0
9:52 am 09:52 Sunny 44 6.7 33 0.6 65 65 W 5 7 30.27 1025 10 16.0934 0 0
10:52 am 10:52 Sunny 48 8.9 29 -1.7 48 48 Calm 30.27 1025 10 16.0934 0 0
11:52 am 11:52 Sunny 51 10.6 21 -6.1 31 31 VRB 3 6 30.27 1025 10 16.0934 0 0
12:52 pm 12:52 Mostly Sunny 53 11.7 23 -5 31 31 NNW 7 11 30.25 1024 10 16.0934 0 0
1:52 pm 13:52 Mostly Sunny 56 13.3 22 -5.6 27 27 W 7 11 30.24 1024 10 16.0934 0 0
2:52 pm 14:52 Sunny 56 13.3 20 -6.7 24 24 WSW 14 22 30.21 1023 10 16.0934 0 0
3:52 pm 15:52 Sunny 57 13.9 20 -6.7 24 24 W 10 17 30.19 1022 10 16.0934 0 0
4:52 pm 16:52 Mostly Sunny 56 13.3 20 -6.7 24 24 WSW 9 15 30.18 1022 10 16.0934 0 0
5:52 pm 17:52 Mostly Sunny 55 12.8 20 -6.7 25 25 W 12 19 30.19 1023 10 16.0934 0 0
6:52 pm 18:52 Mostly Sunny 51 10.6 22 -5.6 32 32 W 5 7 30.2 1023 10 16.0934 0 0
7:52 pm 19:52 Clear 49 9.4 22 -5.6 35 35 SW 5 7 30.22 1023 10 16.0934 0 0
8:52 pm 20:52 Clear 46 7.8 24 -4.4 42 42 SSW 3 6 30.22 1023 10 16.0934 0 0
9:52 pm 21:52 Clear 41 5 26 -3.3 55 55 SSW 5 7 30.23 1024 10 16.0934 0 0
10:52 pm 22:52 Mostly Clear 41 5 26 -3.3 55 55 S 8 13 30.23 1024 10 16.0934 0 0
11:52 pm 23:52 Mostly Cloudy 42 5.6 26 -3.3 53 53 S 7 11 30.24 1024 10 16.0934 0 0

Powered by AerisWeather